Regional Weather Roundup
Issued by NWS

Home | Current Version | Previous Version | Graphics & Text | Print | Product List | Glossary On
Versions: 1 2 3 4 5 6 7 8 9 10 11 12 13 14 15 16 17 18 19 20 21 22 23 24 25 26 27 28 29 30 31 32 33 34 35 36 37 38 39 40 41 42 43 44 45 46 47 48 49 50
000
ASUS43 KIND 030009
RWRIN

WEATHER ROUNDUP FOR INDIANA
NATIONAL WEATHER SERVICE INDIANAPOLIS IN
700 PM EST MON MAR 02 2015

NOTE: "FAIR" INDICATES FEW OR NO CLOUDS BELOW 12,000 FEET WITH NO
SIGNIFICANT WEATHER AND/OR OBSTRUCTIONS TO VISIBILITY.

* - STATION DOES NOT REPORT WEATHER SUCH AS PRECIPITATION OR FOG.

+ - STATION NOT QUALITY CONTROLLED BY THE NATIONAL WEATHER SERVICE.
    USE DATA WITH CAUTION...ESPECIALLY DEWPOINT AND RELATIVE
    HUMIDITY OBSERVATIONS.

INZ001>003-010>013-019-020-030100-
NORTHWEST INDIANA

CITY           SKY/WX    TMP DP  RH WIND       PRES   REMARKS
KNOX *+          N/A     27  -2  28 CALM      30.41S
LA PORTE +     PTCLDY    28  16  61 S3        30.41S
6HR MIN TEMP:  27; 6HR MAX TEMP:  31;

MICHIGAN CITY+ MOCLDY    28  12  50 SE5       30.41F WCI  23
MONTICELLO +   CLOUDY    26  15  62 CALM      30.41F
6HR MIN TEMP:  22; 6HR MAX TEMP:  27;

RENSSELAER +   MOCLDY    27  21  80 S3        30.42S
VALPARAISO     MOCLDY    26  12  55 S5        30.40F WCI  20
6HR MIN TEMP:  25; 6HR MAX TEMP:  27;


$$

LMZ046-743>745-030100-
SOUTHERN LAKE MICHIGAN

STATION/POSITION TIME  TEMP WIND        PRES
                       AIR  DIR/SP/G
                 (UTC) (F)  (DEG/KT/KT) (MB)
MICHIGAN CITY    0000   22   30/  4/  4   N/A

$$

INZ004-005-014>016-021>024-030100-
NORTH CENTRAL INDIANA

CITY           SKY/WX    TMP DP  RH WIND       PRES   REMARKS
ELKHART        CLEAR     28  10  47 S5        30.40F WCI  23
GOSHEN         MOCLDY    24  13  62 S3        30.40F
6HR MIN TEMP:  23; 6HR MAX TEMP:  28;

LOGANSPORT +   CLOUDY    23  18  80 CALM      30.42F
PERU/GRISSOM   CLOUDY    23  17  75 S6        30.41S WCI  16
6HR MIN TEMP:  22; 6HR MAX TEMP:  29;

ROCHESTER +    PTCLDY    28  14  54 SW3       30.42S
SOUTH BEND     MOCLDY    28  14  55 SW3       30.40F
6HR MIN TEMP:  26; 6HR MAX TEMP:  32;

WARSAW +       PTCLDY    27  12  54 CALM      30.40F

$$

INZ006>009-017-018-025>027-030100-
NORTHEAST INDIANA

CITY           SKY/WX    TMP DP  RH WIND       PRES   REMARKS
ANGOLA *+      CLEAR     21  14  73 CALM      30.39F
AUBURN +       PTCLDY    27  12  54 CALM      30.41F
FORT WAYNE     MOCLDY    20  11  68 S6        30.42F WCI  12
6HR MIN TEMP:  20; 6HR MAX TEMP:  29;

HUNTINGTON +   PTCLDY    24   9  52 S3        30.42S
6HR MIN TEMP:  24; 6HR MAX TEMP:  29;


$$

INZ028-029-035-036-043>045-051>053-030100-
WEST CENTRAL INDIANA

CITY           SKY/WX    TMP DP  RH WIND       PRES   REMARKS
CRAWFORDSVL +  MOCLDY    25  11  55 E3        30.40F
6HR MIN TEMP:  24; 6HR MAX TEMP:  28;

GREENCASTLE +  PTCLDY    28  12  50 E3        30.41F
LAFAYETTE      CLOUDY    26  16  65 S3        30.42F
6HR MIN TEMP:  26; 6HR MAX TEMP:  31;

TERRE HAUTE    PTCLDY    30  16  56 CALM      30.40F
6HR MIN TEMP:  29; 6HR MAX TEMP:  35;


$$

INZ030>032-037>040-046>048-054>057-064-065-030100-
CENTRAL INDIANA

CITY           SKY/WX    TMP DP  RH WIND       PRES   REMARKS
CP ATTERBURY + MOCLDY    28  16  59 CALM      30.43F
FRANKFORT +    PTCLDY    25  18  76 CALM      30.42F
6HR MIN TEMP:  19; 6HR MAX TEMP:  28;

GREENWOOD *+   CLOUDY    27  10  50 E3        30.42
INDIANAPOLIS   MOCLDY    27  14  58 SE10      30.40F WCI  17
6HR MIN TEMP:  27; 6HR MAX TEMP:  34;

-EAGLE CREEK   CLOUDY    28  15  58 SE9       30.40F WCI  19
6HR MIN TEMP:  28; 6HR MAX TEMP:  33;

KOKOMO *+      CLOUDY    23  16  74 S6        30.42F WCI  16
6HR MIN TEMP:  18; 6HR MAX TEMP:  27; 6HR PCP:  0.04;

MARION +       CLOUDY    18  11  74 CALM      30.43R
MT COMFORT *+  MOCLDY    23   7  50 SE5       30.42F WCI  17
SHELBYVILLE    CLOUDY    26  14  60 NE3       30.42F
6HR MIN TEMP:  26; 6HR MAX TEMP:  31;

ZIONSVILLE +   CLOUDY    27  14  57 E5        30.41F WCI  22
6HR MIN TEMP:  24; 6HR MAX TEMP:  30;


$$

INZ033-034-041-042-049-050-058-059-030100-
EAST CENTRAL INDIANA

CITY           SKY/WX    TMP DP  RH WIND       PRES   REMARKS
MUNCIE         MOCLDY    21  12  68 SE5       30.42F WCI  15
6HR MIN TEMP:  21; 6HR MAX TEMP:  29;


$$

INZ060-061-067>069-081>083-085>088-030100-
SOUTHWEST INDIANA

CITY           SKY/WX    TMP DP  RH WIND       PRES   REMARKS
EVANSVILLE     CLOUDY    34  22  61 N5        30.38F WCI  30
6HR MIN TEMP:  34; 6HR MAX TEMP:  39;

HUNTINGBURG *+ CLOUDY    34  18  51 NE12      30.38F WCI  25
6HR MIN TEMP:  34; 6HR MAX TEMP:  37;

WASHINGTON +   MOCLDY    30  20  68 NE5       30.40F WCI  25
6HR MIN TEMP:  28; 6HR MAX TEMP:  32;


$$

INZ062-063-066-070>080-084-089>092-030100-
SOUTH CENTRAL AND SOUTHEAST INDIANA

CITY           SKY/WX    TMP DP  RH WIND       PRES   REMARKS
BLOOMINGTON    CLEAR     32  17  54 SE7       30.39F WCI  26
6HR MIN TEMP:  32; 6HR MAX TEMP:  38; 6HR PCP: TRACE;

NORTH VERNON + PTCLDY    28  18  64 N3        30.42F
SEYMOUR +      PTCLDY    30  16  55 N6        30.42F WCI  24

$$




USA.gov is the U.S. government's official web portal to all federal, state and local government web resources and services.